FW9543 Weather Reports


time (UTC)temp
C
wind
direction
speed
KPH
gust
KPH
rain 1hr
cm
rain 24hr
cm
rain mn
cm
humidity
%
barometer
mb
20260505052026 5 5 8.0 17.7 0.00 0.00 0.00 63 1013.1
20260505051536 5 355 12.9 20.9 0.00 0.00 0.00 64 1013.0
20260505051024 5 360 8.0 20.9 0.00 0.00 0.00 64 1013.0
20260505050521 5 5 8.0 19.3 0.00 0.00 0.00 64 1013.1
20260505041520 5 35 4.8 16.1 0.00 0.00 0.00 61 1013.1
20260505041018 5 56 8.0 20.9 0.00 0.00 0.00 61 1013.1
20260505040515 5 27 11.3 20.9 0.00 0.00 0.00 60 1013.0
20260505040013 5 360 12.9 19.3 0.00 0.00 0.00 59 1013.0
20260505035515 5 12 12.9 20.9 0.00 0.00 0.00 58 1012.9
20260505035011 5 5 12.9 20.9 0.00 0.00 0.00 59 1012.9
20260505034511 5 344 8.0 20.9 0.00 0.00 0.00 59 1012.9
20260505034015 5 346 9.7 22.5 0.00 0.00 0.00 58 1012.9
20260505033509 6 342 14.5 22.5 0.00 0.00 0.00 57 1012.9
20260505033009 6 14 14.5 22.5 0.00 0.00 0.00 57 1012.8
20260505032508 6 5 14.5 24.1 0.00 0.00 0.00 57 1012.7
20260505032006 6 36 11.3 24.1 0.00 0.00 0.00 58 1012.6
20260505031509 6 360 14.5 25.7 0.00 0.00 0.00 58 1012.5
20260505031011 6 5 16.1 22.5 0.00 0.00 0.00 58 1012.5
20260505030507 6 28 11.3 20.9 0.00 0.00 0.00 58 1012.5
20260505030003 6 11 14.5 20.9 0.00 0.00 0.00 58 1012.4
20260505025502 6 24 11.3 25.7 0.00 0.00 0.00 57 1012.4
20260505025001 6 20 14.5 25.7 0.00 0.00 0.00 56 1012.3
20260505024601 6 32 16.1 32.2 0.00 0.00 0.00 56 1012.2
20260505024100 6 10 24.1 33.8 0.00 0.00 0.00 55 1012.2
20260505023558 6 20 19.3 33.8 0.00 0.00 0.00 54 1012.1
20260505023104 6 15 17.7 27.4 0.00 0.00 0.00 54 1012.0
20260505022557 6 9 16.1 25.7 0.00 0.00 0.00 54 1012.2
20260505022057 6 22 17.7 25.7 0.00 0.00 0.00 54 1012.1
20260505021557 6 9 17.7 27.4 0.00 0.00 0.00 53 1012.0
20260505021055 6 351 19.3 27.4 0.00 0.00 0.00 53 1012.0
20260505020555 6 5 12.9 27.4 0.00 0.00 0.00 53 1012.0
20260505020056 6 17 16.1 27.4 0.00 0.00 0.00 54 1011.9
20260505015555 6 350 12.9 22.5 0.00 0.00 0.00 54 1011.9
20260505015055 6 16 11.3 25.7 0.00 0.00 0.00 54 1011.8
20260505014558 6 336 12.9 25.7 0.00 0.00 0.00 54 1011.8
20260505014053 6 342 11.3 22.5 0.00 0.00 0.00 54 1011.9
20260505013552 6 355 11.3 24.1 0.00 0.00 0.00 54 1011.9
20260505013056 6 349 16.1 25.7 0.00 0.00 0.00 53 1011.8
20260505012552 7 346 14.5 25.7 0.00 0.00 0.00 53 1011.9
20260505012053 7 355 14.5 24.1 0.00 0.00 0.00 52 1011.9
20260505011554 7 351 9.7 25.7 0.00 0.00 0.00 52 1011.8
20260505011051 7 5 16.1 27.4 0.00 0.00 0.00 52 1011.8
20260505010551 7 36 16.1 27.4 0.00 0.00 0.00 51 1011.7
20260505010110 7 28 17.7 27.4 0.00 0.00 0.00 50 1011.9
20260505005551 7 23 12.9 30.6 0.00 0.00 0.00 50 1011.8
20260505005051 7 15 16.1 30.6 0.00 0.00 0.00 50 1011.7
20260505004551 7 5 17.7 27.4 0.00 0.00 0.00 49 1011.8
20260505004050 8 347 17.7 33.8 0.00 0.00 0.00 49 1011.6
20260505003549 8 29 17.7 25.7 0.00 0.00 0.00 50 1011.7
20260505003053 8 350 16.1 25.7 0.00 0.00 0.00 50 1011.6
20260505002548 8 360 16.1 24.1 0.00 0.00 0.00 52 1011.5
20260505002048 8 22 12.9 25.7 0.00 0.00 0.00 52 1011.6
20260505001548 9 22 17.7 25.7 0.00 0.00 0.00 51 1011.7
20260505001051 9 13 14.5 27.4 0.00 0.00 0.00 52 1011.5
20260505000549 9 5 14.5 27.4 0.00 0.00 0.00 52 1011.5
20260505000049 9 13 16.1 24.1 0.00 0.00 0.00 51 1011.6
20260504235548 9 347 14.5 22.5 0.00 0.00 0.00 51 1011.5
20260504235048 10 9 11.3 27.4 0.00 0.00 0.00 51 1011.4
20260504234547 10 21 19.3 27.4 0.00 0.00 0.00 51 1011.4
20260504234047 10 347 17.7 25.7 0.00 0.00 0.00 51 1011.4
20260504233549 10 5 12.9 25.7 0.00 0.00 0.00 50 1011.4
20260504233047 10 340 12.9 25.7 0.00 0.00 0.00 50 1011.4
20260504232547 10 355 17.7 25.7 0.00 0.00 0.00 50 1011.4
20260504232046 10 62 9.7 22.5 0.00 0.00 0.00 50 1011.4
20260504231548 10 69 11.3 27.4 0.00 0.00 0.00 52 1011.4
20260504231046 10 55 14.5 27.4 0.00 0.00 0.00 51 1011.3
20260504230549 10 28 9.7 22.5 0.00 0.00 0.00 51 1011.4
20260504230048 10 35 12.9 27.4 0.00 0.00 0.00 51 1011.3
20260504225545 10 360 12.9 29.0 0.00 0.00 0.00 51 1011.4
20260504225045 10 25 16.1 29.0 0.00 0.00 0.00 49 1011.3
20260504224545 10 30 11.3 29.0 0.00 0.00 0.00 51 1011.2
20260504224045 10 18 14.5 29.0 0.00 0.00 0.00 51 1011.2
20260504223546 10 5 16.1 29.0 0.00 0.00 0.00 51 1011.2
20260504223058 10 37 9.7 29.0 0.00 0.00 0.00 52 1010.9
20260504222547 9 46 19.3 29.0 0.00 0.00 0.00 52 1011.2
20260504222043 9 348 19.3 27.4 0.00 0.00 0.00 51 1011.2
20260504221645 10 13 14.5 29.0 0.00 0.00 0.00 50 1011.2
20260504221043 10 355 20.9 29.0 0.00 0.00 0.00 50 1011.1
20260504220543 10 17 17.7 29.0 0.00 0.00 0.00 49 1011.0
20260504220043 10 355 14.5 27.4 0.00 0.00 0.00 48 1011.1
20260504215543 11 355 14.5 33.8 0.00 0.00 0.00 47 1011.2
20260504215045 11 355 17.7 33.8 0.00 0.00 0.00 48 1011.2
20260504214542 11 360 20.9 29.0 0.00 0.00 0.00 48 1011.2
20260504214042 11 5 17.7 29.0 0.00 0.00 0.00 47 1011.3
20260504213541 11 317 16.1 29.0 0.00 0.00 0.00 47 1011.3
20260504213058 11 351 17.7 29.0 0.00 0.00 0.00 48 1011.1
20260504212541 11 5 14.5 29.0 0.00 0.00 0.00 47 1011.2
20260504212044 11 32 14.5 27.4 0.00 0.00 0.00 48 1011.3
20260504211546 10 54 16.1 37.0 0.00 0.00 0.00 49 1011.2
20260504211039 11 360 22.5 37.0 0.00 0.00 0.00 46 1011.4
20260504210540 12 315 20.9 32.2 0.00 0.00 0.00 45 1011.2
20260504210039 11 13 14.5 32.2 0.00 0.00 0.00 47 1011.2
20260504205542 12 349 19.3 32.2 0.00 0.00 0.00 45 1011.3
20260504205038 12 332 22.5 33.8 0.00 0.00 0.00 45 1011.3
20260504204537 12 315 17.7 33.8 0.00 0.00 0.00 46 1011.2
20260504204038 12 5 22.5 33.8 0.00 0.00 0.00 46 1011.2
20260504203536 12 329 17.7 29.0 0.00 0.00 0.00 46 1011.1
20260504203046 11 341 16.1 29.0 0.00 0.00 0.00 48 1011.2
20260504202536 11 342 17.7 33.8 0.00 0.00 0.00 47 1011.3
20260504202035 12 25 19.3 33.8 0.00 0.00 0.00 47 1011.3
20260504201535 11 319 17.7 33.8 0.00 0.00 0.00 48 1011.2
20260504201038 11 360 17.7 33.8 0.00 0.00 0.00 47 1011.2
20260504200535 11 360 17.7 29.0 0.00 0.00 0.00 47 1011.3
20260504200035 11 321 16.1 29.0 0.00 0.00 0.00 48 1011.3
20260504195534 11 346 17.7 30.6 0.00 0.00 0.00 47 1011.4
20260504195034 11 342 17.7 30.6 0.00 0.00 0.00 48 1011.4
20260504194541 12 16 20.9 30.6 0.00 0.00 0.00 47 1011.5
20260504194034 11 315 16.1 25.7 0.00 0.00 0.00 47 1011.4
20260504193536 11 336 12.9 27.4 0.00 0.00 0.00 47 1011.4
20260504193032 12 355 12.9 27.4 0.00 0.00 0.00 47 1011.3
20260504192530 12 310 12.9 30.6 0.00 0.00 0.00 46 1011.3
20260504192035 11 24 11.3 25.7 0.00 0.00 0.00 48 1011.2
20260504191537 11 302 17.7 25.7 0.00 0.00 0.00 48 1011.4
20260504191030 11 17 16.1 25.7 0.00 0.00 0.00 51 1011.5
20260504190530 11 330 4.8 16.1 0.00 0.00 0.00 52 1011.5
20260504190029 11 63 1.6 9.7 0.00 0.00 0.00 52 1011.5
20260504185530 11 56 4.8 12.9 0.00 0.00 0.00 51 1011.5
20260504185035 11 22 1.6 12.9 0.00 0.00 0.00 51 1011.5
20260504184530 11 77 4.8 14.5 0.00 0.00 0.00 52 1011.5
20260504184033 11 53 6.4 20.9 0.00 0.00 0.00 52 1011.5
20260504183527 11 313 8.0 17.7 0.00 0.00 0.00 52 1011.5
20260504183028 11 11 6.4 19.3 0.00 0.00 0.00 51 1011.6
20260504182527 10 71 6.4 20.9 0.00 0.00 0.00 55 1011.6
20260504182027 10 54 11.3 20.9 0.00 0.00 0.00 53 1012.2
20260504181527 10 33 4.8 16.1 0.00 0.00 0.00 53 1011.8
20260504181033 10 81 4.8 17.7 0.00 0.00 0.00 54 1011.9
20260504180528 10 17 8.0 17.7 0.00 0.00 0.00 56 1011.8
20260504180028 10 27 11.3 19.3 0.00 0.00 0.00 54 1011.8
20260504175528 10 41 11.3 19.3 0.00 0.00 0.00 54 1011.9
20260504175026 10 70 9.7 24.1 0.00 0.00 0.00 54 1012.0
20260504174526 10 9 14.5 24.1 0.00 0.00 0.00 55 1011.9
20260504174026 9 30 9.7 20.9 0.00 0.00 0.00 58 1011.7
20260504173525 8 84 11.3 22.5 0.00 0.00 0.00 57 1011.3
20260504173024 8 44 12.9 22.5 0.00 0.00 0.00 55 1011.4
20260504172523 8 65 8.0 17.7 0.00 0.00 0.00 55 1011.9
20260504172023 9 61 6.4 20.9 0.00 0.00 0.00 54 1012.0
20260504171530 10 84 9.7 24.1 0.00 0.00 0.00 53 1011.8
20260504171023 10 51 16.1 24.1 0.00 0.00 0.00 56 1011.8
20260504170521 8 48 11.3 22.5 0.00 0.00 0.00 58 1011.9
20260504151011 8 39 19.3 35.4 0.00 0.00 0.00 56 1010.5
20260504150512 8 71 22.5 38.6 0.00 0.00 0.00 58 1010.3
20260504141006 8 53 11.3 29.0 0.00 0.00 0.00 62 1010.3
20260504140504 8 59 17.7 29.0 0.00 0.00 0.00 59 1010.3
20260504130559 11 273 9.7 16.1 0.00 0.00 0.00 47 1008.7
20260504130159 11 273 9.7 16.1 0.00 0.00 0.00 46 1008.6
20260504110544 8 257 9.7 12.9 0.00 0.00 0.00 54 1008.5
20260504100538 8 257 9.7 14.5 0.00 0.00 0.00 54 1008.6
20260504081529 8 256 8.0 12.9 0.00 0.00 0.00 55 1009.4
20260504081029 8 256 8.0 14.5 0.00 0.00 0.00 56 1009.5
20260504080525 8 267 9.7 14.5 0.00 0.00 0.00 56 1009.6